[[{"header":{"parameterUnit":"m.s-1","parameterCategory":1,"la1":30.2991,"la2":30.254,"lo1":-89.0895,"lo2":-89.0444,"dy":0.0017,"dx":0.0017,"nx":28,"ny":28,"refTime":"2023-10-02T09:00:00:Z","depth":0,"parameterNumber":2,"parameterNumberName":"U-component_of_WINDS"},"data":[0,0,0,0,0,0,0,0,0,0,0,0,0,0,0,0,0,0,0,0,0,0,0,0,0,0,0,0,0,0,0,0,0,0,0,0,0,0,0,0,0,0,0,0,0,0,0,0,0,0,0,0,0,0,0,0,0,0,-3.4041,-3.4042,0,-3.41,-3.4101,-3.4102,-3.4011,-3.4008,-3.4005,-3.4002,-3.4061,-3.4066,-3.407,0,0,0,0,0,0,0,0,0,0,0,0,0,-3.3848,-3.3852,-3.4041,-3.4042,-3.4042,-3.41,-3.4101,-3.4102,-3.4012,-3.4008,-3.4004,-3.4,-3.406,-3.4065,-3.407,0,0,0,0,0,0,0,0,0,0,0,0,0,-3.3922,-3.3853,-3.4041,-3.4004,-3.4002,-3.41,-3.4101,-3.4102,-3.4012,-3.4008,-3.4003,-3.3998,-3.4058,-3.4065,-3.4071,-3.4208,0,0,-3.4092,-3.4095,0,0,0,0,0,0,0,0,-3.3918,-3.3929,-3.4009,-3.4007,-3.4004,-3.4043,-3.4055,-3.4137,-3.4014,-3.4008,-3.4002,-3.3996,-3.4059,-3.4065,-3.4087,-3.421,-3.4213,-3.4093,-3.4097,-3.41,-3.4101,0,0,0,0,0,0,0,-3.3913,-3.3926,-3.4064,-3.401,-3.4007,-3.3985,-3.399,-3.407,-3.4059,-3.4008,-3.4002,-3.401,-3.4057,-3.4081,-3.4088,-3.4214,-3.4092,-3.4098,-3.4103,-3.4105,-3.4452,-3.4457,0,0,0,0,0,0,-3.3912,-3.3922,-3.4062,-3.4066,-3.3949,-3.3992,-3.3998,-3.4036,-3.4058,-3.4057,-3.4014,-3.4006,-3.4071,-3.408,-3.4089,-3.425,-3.4099,-3.4106,-3.411,-3.4447,-3.4453,-3.4459,0,0,0,0,0,0,-3.3909,-3.3926,-3.406,-3.3993,-3.4008,-3.4,-3.4043,-3.4039,-3.4063,-3.4063,-3.406,-3.4041,-3.4068,-3.408,-3.4179,-3.425,-3.4109,-3.4115,-3.4441,-3.4449,-3.4456,-3.4572,0,0,0,0,0,0,-3.3903,-3.3925,-3.3977,-3.3994,-3.4012,-3.4149,-3.4048,-3.4044,-3.4075,-3.4065,-3.4087,-3.4086,-3.4065,-3.4169,-3.4186,-3.4257,-3.412,-3.4434,-3.4444,-3.4453,-3.4562,-3.4583,-3.4601,0,0,0,0,0,-3.3897,-3.4007,-3.398,-3.3997,-3.4077,-3.4153,-3.4163,-3.4138,-3.4081,-3.4133,-3.4133,-3.4085,-3.4241,-3.418,-3.4198,-3.4273,-3.4429,-3.4441,-3.4453,-3.4553,-3.4579,-3.46,0,0,0,0,0,0,-3.3997,-3.4009,-3.3979,-3.4098,-3.4126,-3.4138,-3.4202,-3.4166,-3.4209,-3.4198,-3.4164,-3.417,-3.4276,-3.4284,-3.4217,-3.4406,-3.4325,-3.4341,-3.4396,-3.442,-3.4439,-3.4434,-3.4126,0,0,0,0,0,-3.4034,-3.4095,-3.4102,-3.4206,-3.4222,-3.421,-3.4243,-3.4221,-3.4248,-3.4259,-3.4266,-3.4293,-3.4348,-3.4385,-3.4436,-3.4563,-3.4566,-3.4624,-3.4643,-3.4659,-3.4672,-3.474,-3.4765,-3.4496,-3.4496,-3.4496,0,0,-3.4108,-3.4122,-3.4163,-3.4227,-3.4246,-3.431,-3.422,-3.4292,-3.4339,-3.4269,-3.4363,-3.437,-3.4398,-3.4512,-3.4563,-3.4522,-3.4748,-3.4674,-3.4687,-3.4691,-3.4754,-3.478,-3.4802,-3.4504,-3.4503,-3.4502,0,0,-3.4277,-3.4295,-3.4383,-3.4404,-3.4434,-3.4426,-3.4447,-3.4466,-3.4468,-3.4562,-3.451,-3.4566,-3.4662,-3.4684,-3.4708,-3.4887,-3.4844,-3.4904,-3.5005,-3.5072,-3.5093,-3.5111,-3.5174,-3.5197,-3.4918,-3.4918,-3.4918,0,-3.4366,-3.4461,-3.4433,-3.4509,-3.4538,-3.4479,-3.4568,-3.4589,-3.4634,-3.4656,-3.4611,-3.4729,-3.4744,-3.4862,-3.4906,-3.4928,-3.4951,-3.49,-3.5092,-3.511,-3.5127,-3.5186,-3.521,-3.4925,-3.4924,-3.4924,-3.4923,0,-3.4569,-3.4636,-3.4704,-3.4749,-3.4786,-3.4868,-3.4852,-3.4893,-3.4868,-3.4865,-3.4961,-3.4978,-3.503,-3.5057,-3.5034,-3.5172,-3.5146,-3.5098,-3.5016,-3.516,-3.5215,-3.5238,-3.4935,-3.4933,-3.4931,-3.4929,0,0,-3.48,-3.483,-3.4855,-3.4875,-3.4904,-3.4955,-3.5035,-3.5087,-3.5122,-3.5155,-3.522,-3.5303,-3.5259,-3.5286,-3.5265,-3.5323,-3.5462,-3.5267,-3.5267,-3.5301,-3.5615,-3.565,-3.5676,-3.5435,-3.544,-3.5443,-3.5612,0,-3.4968,-3.5105,-3.5082,-3.5215,-3.5276,-3.5221,-3.529,-3.5316,-3.5315,-3.5366,-3.5365,-3.5424,-3.5361,-3.5377,-3.5433,-3.5434,-3.5525,-3.5422,-3.5494,-3.5497,-3.5487,-3.5705,-3.5743,-3.5901,-3.5633,-3.5637,-3.5639,0,-3.518,-3.5222,-3.5361,-3.538,-3.5405,-3.5467,-3.5513,-3.5564,-3.5591,-3.5587,-3.5618,-3.5586,-3.5665,-3.5585,-3.5692,-3.5623,-3.5652,-3.5657,-3.5662,-3.5666,-3.5575,-3.5714,-3.5951,-3.5974,-3.5673,-3.5671,-3.5668,0,-3.5333,-3.5424,-3.5519,-3.5538,-3.5563,-3.5608,-3.5621,-3.5644,-3.5677,-3.5718,-3.5738,-3.5788,-3.5814,-3.5853,-3.5835,-3.5778,-3.5946,-3.5864,-3.5944,-3.5944,-3.5979,-3.5977,-3.6223,-3.6002,-3.6001,-3.6001,-3.6001,0,-3.5521,-3.5608,-3.5588,-3.5646,-3.5741,-3.5715,-3.581,-3.5817,-3.5838,-3.5896,-3.5852,-3.5908,-3.5882,-3.5936,-3.5923,-3.6013,-3.6026,-3.6024,-3.6019,-3.6027,-3.6027,-3.6043,-3.6031,-3.6007,-3.6006,-3.6005,-3.6004,0,-3.5707,-3.5698,-3.5797,-3.5813,-3.582,-3.5889,-3.5903,-3.5957,-3.5954,-3.6028,-3.6044,-3.6039,-3.6099,-3.6086,-3.6153,-3.6144,-3.6258,-3.624,-3.6248,-3.6243,-3.6323,-3.6315,-3.6586,-3.662,-3.6379,-3.6382,-3.6384,0,-3.5826,-3.5892,-3.5916,-3.5952,-3.5968,-3.6026,-3.606,-3.6037,-3.6074,-3.6111,-3.616,-3.6217,-3.6261,-3.6361,-3.6363,-3.6414,-3.6396,-3.6488,-3.6403,-3.6409,-3.6396,-3.6391,-3.6397,-3.6504,-3.6507,-3.6509,-3.6511,0,-3.6039,-3.6031,-3.6081,-3.613,-3.6171,-3.6208,-3.6241,-3.6273,-3.6253,-3.6297,-3.6358,-3.6393,-3.6461,-3.6518,-3.6566,-3.6578,-3.6541,-3.6538,-3.6558,-3.6566,-3.6567,-3.6566,-3.6292,-3.6531,-3.6529,-3.6527,-3.6526,-3.6526,-3.6194,-3.6249,-3.6275,-3.6332,-3.6354,-3.6386,-3.6438,-3.6442,-3.6493,-3.6547,-3.6531,-3.6601,-3.6627,-3.6687,-3.6706,-3.676,-3.6726,-3.6756,-3.6763,-3.6771,-3.678,-3.6561,-3.6769,-3.6768,-3.6768,-3.6767,-3.6767,0,-3.6402,-3.6416,-3.6469,-3.6517,-3.6562,-3.6525,-3.656,-3.6599,-3.6662,-3.669,-3.6735,-3.6806,-3.6861,-3.6868,-3.692,-3.6963,-3.6947,-3.6977,-3.6972,-3.6976,-3.6809,-3.6784,-3.6989,-3.6989,-3.6988,-3.6988,-3.6988,-3.6988,-3.6516,-3.6607,-3.6603,-3.6705,-3.6718,-3.6787,-3.681,-3.6839,-3.6861,-3.6943,-3.6988,-3.6993,-3.7013,-3.7066,-3.7115,-3.7116,-3.7136,-3.7173,-3.7167,-3.701,-3.6988,-3.6966,-3.6944,-3.7178,-3.7178,-3.7329,-3.733,-3.7331]},{"header":{"parameterUnit":"m.s-1","parameterCategory":1,"la1":30.2991,"la2":30.254,"lo1":-89.0895,"lo2":-89.0444,"dy":0.0017,"dx":0.0017,"nx":28,"ny":28,"refTime":"2023-10-02T09:00:00:Z","depth":0,"parameterNumber":3,"parameterNumberName":"V-component_of_WINDS"},"data":[0,0,0,0,0,0,0,0,0,0,0,0,0,0,0,0,0,0,0,0,0,0,0,0,0,0,0,0,0,0,0,0,0,0,0,0,0,0,0,0,0,0,0,0,0,0,0,0,0,0,0,0,0,0,0,0,0,0,1.137,1.1368,0,1.1255,1.1254,1.1252,1.1145,1.1144,1.1142,1.1141,1.1019,1.1017,1.1015,0,0,0,0,0,0,0,0,0,0,0,0,0,1.1493,1.1492,1.137,1.1368,1.1367,1.1255,1.1253,1.1252,1.1145,1.1144,1.1142,1.1141,1.102,1.1018,1.1015,0,0,0,0,0,0,0,0,0,0,0,0,0,1.1415,1.1491,1.137,1.13,1.1293,1.1255,1.1253,1.1251,1.1146,1.1144,1.1142,1.114,1.1021,1.1018,1.1015,1.1036,0,0,1.1006,1.1004,0,0,0,0,0,0,0,0,1.142,1.1411,1.1312,1.1305,1.1297,1.1212,1.1252,1.1179,1.1146,1.1201,1.1141,1.1139,1.1085,1.1076,1.1059,1.103,1.1025,1.1005,1.1003,1.1002,1.1001,0,0,0,0,0,0,0,1.1425,1.1415,1.1324,1.1311,1.1301,1.1274,1.126,1.1238,1.1155,1.1196,1.1188,1.1177,1.108,1.1062,1.1055,1.1023,1.1005,1.1003,1.1001,1.1,1.1005,1.1007,0,0,0,0,0,0,1.1442,1.142,1.1328,1.1321,1.1355,1.1273,1.1258,1.1241,1.1155,1.1141,1.1178,1.1172,1.1068,1.1059,1.1051,1.1069,1.1002,1.0999,1.0998,1.1003,1.1005,1.1007,0,0,0,0,0,0,1.1445,1.1435,1.1332,1.1368,1.1353,1.1273,1.1255,1.124,1.1222,1.1142,1.1126,1.1175,1.1066,1.1055,1.104,1.1063,1.0998,1.0995,1.1,1.1003,1.1006,1.1106,0,0,0,0,0,0,1.1449,1.1436,1.1444,1.1369,1.1352,1.1325,1.1256,1.1239,1.1218,1.1208,1.1135,1.1121,1.1064,1.1046,1.1037,1.1058,1.0993,1.0998,1.1002,1.1005,1.1101,1.1112,1.1123,0,0,0,0,0,1.1454,1.1476,1.1445,1.1435,1.136,1.1327,1.1317,1.1252,1.122,1.1226,1.1175,1.1123,1.1063,1.1045,1.1035,1.1055,1.0996,1.1001,1.1005,1.1096,1.111,1.1122,0,0,0,0,0,0,1.1554,1.1465,1.143,1.1429,1.1387,1.1309,1.1315,1.1269,1.1234,1.1227,1.1147,1.1131,1.1126,1.1089,1.1071,1.107,1.1022,1.1025,1.1095,1.1108,1.1118,1.1127,1.099,0,0,0,0,0,1.1577,1.1558,1.1481,1.1487,1.1468,1.1396,1.1379,1.1333,1.1286,1.1267,1.1214,1.1169,1.1139,1.1121,1.109,1.1095,1.1077,1.1104,1.1115,1.1124,1.1127,1.1127,1.1138,1.1022,1.1022,1.1022,0,0,1.1622,1.1571,1.1564,1.1506,1.1468,1.145,1.1381,1.1365,1.135,1.1264,1.1247,1.1207,1.1151,1.1147,1.1142,1.1116,1.1156,1.113,1.1138,1.1135,1.1133,1.1144,1.1153,1.1025,1.1024,1.1024,0,0,1.1695,1.1655,1.1656,1.162,1.1564,1.1515,1.1516,1.1446,1.1416,1.1399,1.1334,1.1315,1.1266,1.1229,1.1203,1.1264,1.1215,1.1256,1.1313,1.1313,1.1323,1.133,1.1351,1.136,1.126,1.126,1.126,0,1.1758,1.1729,1.1662,1.165,1.1626,1.1549,1.1549,1.1517,1.1453,1.1438,1.141,1.1347,1.1304,1.129,1.1305,1.1287,1.1285,1.1264,1.1327,1.1334,1.134,1.1359,1.1367,1.1265,1.1265,1.1264,1.1263,0,1.1809,1.179,1.1797,1.174,1.1717,1.1711,1.1642,1.1627,1.1584,1.1539,1.1522,1.1468,1.1424,1.1417,1.1374,1.1397,1.1382,1.1342,1.1292,1.1358,1.1374,1.1381,1.1273,1.1271,1.1269,1.1268,0,0,1.194,1.1847,1.185,1.1823,1.1756,1.174,1.173,1.1689,1.1678,1.1636,1.1626,1.1587,1.1549,1.1521,1.1473,1.1474,1.1525,1.1433,1.143,1.1451,1.1547,1.1577,1.1587,1.1493,1.1494,1.1495,1.1551,0,1.2001,1.1981,1.1921,1.1919,1.19,1.1827,1.1819,1.1776,1.1734,1.1711,1.1664,1.1638,1.159,1.1573,1.1571,1.152,1.1543,1.1515,1.1481,1.148,1.1496,1.1595,1.1627,1.1683,1.1557,1.1558,1.1559,0,1.207,1.2035,1.2031,1.1966,1.1956,1.1949,1.1907,1.1887,1.1837,1.1806,1.1776,1.1723,1.1708,1.1663,1.164,1.1623,1.1605,1.1578,1.1579,1.1572,1.1523,1.1591,1.1699,1.1707,1.1569,1.1568,1.1567,0,1.2165,1.2118,1.2109,1.2088,1.2012,1.2009,1.1977,1.1925,1.1904,1.1867,1.1853,1.1814,1.1793,1.1764,1.1702,1.1675,1.1686,1.1636,1.1659,1.1661,1.1664,1.1664,1.177,1.1655,1.1655,1.1654,1.1654,0,1.2239,1.224,1.2151,1.2146,1.2144,1.2075,1.2075,1.2035,1.199,1.1975,1.191,1.1897,1.1816,1.1794,1.1745,1.1734,1.1725,1.1699,1.1686,1.1704,1.1708,1.1691,1.1685,1.1657,1.1656,1.1656,1.1655,0,1.2345,1.2286,1.2272,1.2201,1.2184,1.2185,1.2124,1.2116,1.2071,1.2052,1.2044,1.1972,1.1943,1.1879,1.1831,1.1798,1.1799,1.1776,1.1816,1.1808,1.1835,1.1833,1.1932,1.1942,1.1822,1.1823,1.1824,0,1.2396,1.2395,1.2325,1.2311,1.2282,1.226,1.2239,1.2171,1.2152,1.2096,1.2094,1.206,1.2028,1.1984,1.1927,1.189,1.1866,1.1903,1.1859,1.1878,1.1865,1.1866,1.1865,1.1912,1.1914,1.1916,1.1917,0,1.2492,1.2463,1.2436,1.24,1.2377,1.2344,1.2308,1.23,1.2223,1.2205,1.2175,1.2151,1.2103,1.207,1.2025,1.199,1.194,1.1931,1.1934,1.1953,1.1976,1.1963,1.1842,1.1929,1.1928,1.1927,1.1926,1.1926,1.2571,1.2566,1.2517,1.2489,1.2455,1.2423,1.2412,1.2366,1.234,1.2297,1.2259,1.2232,1.2182,1.2117,1.2086,1.2063,1.2039,1.2044,1.2045,1.2047,1.2055,1.1981,1.2055,1.2054,1.2054,1.2054,1.2053,0,1.2663,1.2628,1.2603,1.2555,1.2534,1.2491,1.2449,1.2433,1.2411,1.237,1.2341,1.2306,1.2274,1.2215,1.2177,1.217,1.2147,1.2163,1.2162,1.2154,1.2079,1.208,1.2182,1.2182,1.2182,1.2182,1.2182,1.2182,1.2708,1.2698,1.2664,1.2637,1.2601,1.2576,1.2555,1.2525,1.2492,1.2457,1.243,1.2393,1.2344,1.2302,1.227,1.2253,1.2242,1.2265,1.2242,1.2172,1.216,1.2148,1.2148,1.2264,1.2264,1.2318,1.2319,1.2319]}]]